FW4092 Weather Reports


Display with metric or nautical units.
time (UTC)temp
F
wind
direction
speed
MPH
gust
MPH
rain 1hr
in
rain 24hr
in
rain mn
in
humidity
%
barometer
mb
20260831030732 70 13 0.0 2.0 0.00 0.00 0.00 28 1012.9
20260831030225 70 13 1.0 5.0 0.00 0.00 0.00 28 1012.9
20260831030154 71 13 1.0 5.0 0.00 0.00 0.00 28 1012.9
20260831024941 72 9 1.0 5.0 0.00 0.00 0.00 26 1012.7
20260831024426 72 5 1.0 6.0 0.00 0.00 0.00 25 1012.7
20260831023703 73 5 1.0 6.0 0.00 0.00 0.00 24 1012.7
20260831023425 74 41 2.0 6.0 0.00 0.00 0.00 23 1012.7
20260831022906 74 0 1.0 6.0 0.00 0.00 0.00 22 1012.7
20260831022653 74 0 1.0 6.0 0.00 0.00 0.00 22 1012.7
20260831022140 75 44 2.0 6.0 0.00 0.00 0.00 22 1012.7
20260831021632 76 52 2.0 7.0 0.00 0.00 0.00 21 1012.8
20260831021130 76 5 2.0 8.0 0.00 0.00 0.00 21 1012.8
20260831020859 77 19 2.0 8.0 0.00 0.00 0.00 21 1012.7
20260831020115 77 24 2.0 5.0 0.00 0.00 0.00 20 1012.8
20260831015610 78 33 2.0 7.0 0.00 0.00 0.00 19 1012.8
20260831015104 78 53 2.0 6.0 0.00 0.00 0.00 19 1012.7
20260831014600 78 30 2.0 8.0 0.00 0.00 0.00 18 1012.7
20260831014057 79 5 2.0 8.0 0.00 0.00 0.00 19 1012.8
20260831013551 79 33 2.0 7.0 0.00 0.00 0.00 19 1012.8
20260831013038 79 36 2.0 7.0 0.00 0.00 0.00 18 1012.7
20260831012534 79 42 2.0 5.0 0.00 0.00 0.00 18 1012.6
20260831012031 80 38 3.0 9.0 0.00 0.00 0.00 17 1012.6
20260831011517 80 0 3.0 9.0 0.00 0.00 0.00 16 1012.7
20260831011016 80 0 2.0 6.0 0.00 0.00 0.00 16 1012.8
20260831010510 80 37 2.0 5.0 0.00 0.00 0.00 16 1012.9
20260831010237 80 52 3.0 8.0 0.00 0.00 0.00 16 1012.9
20260831005458 80 49 2.0 8.0 0.00 0.00 0.00 15 1012.9
20260831005043 81 41 2.0 5.0 0.00 0.00 0.00 16 1012.9
20260831004810 81 46 2.0 7.0 0.00 0.00 0.00 16 1012.9
20260831003433 80 80 2.0 5.0 0.00 0.00 0.00 15 1012.8
20260831003207 80 74 2.0 6.0 0.00 0.00 0.00 15 1013.0
20260831002427 80 78 1.0 6.0 0.00 0.00 0.00 15 1013.0
20260831001925 80 275 1.0 3.0 0.00 0.00 0.00 14 1013.0
20260831001425 80 259 2.0 4.0 0.00 0.00 0.00 13 1012.9
20260831000924 80 111 2.0 4.0 0.00 0.00 0.00 13 1013.0
20260831000425 80 84 2.0 6.0 0.00 0.00 0.00 13 1012.9
20260830235928 80 75 2.0 6.0 0.00 0.00 0.00 14 1013.0
20260830235425 80 91 2.0 5.0 0.00 0.00 0.00 14 1013.0
20260830234925 80 5 2.0 5.0 0.00 0.00 0.00 12 1013.0
20260830234713 80 323 2.0 6.0 0.00 0.00 0.00 12 1013.1
20260830233925 80 325 2.0 6.0 0.00 0.00 0.00 13 1013.2
20260830233425 79 96 1.0 6.0 0.00 0.00 0.00 12 1013.3
20260830232925 80 96 2.0 7.0 0.00 0.00 0.00 12 1013.4
20260830232425 79 80 3.0 9.0 0.00 0.00 0.00 11 1013.4
20260830231927 79 125 2.0 9.0 0.00 0.00 0.00 13 1013.5
20260830231425 80 46 2.0 8.0 0.00 0.00 0.00 16 1013.6
20260830230925 80 26 2.0 7.0 0.00 0.00 0.00 16 1013.5
20260830230424 79 60 2.0 7.0 0.00 0.00 0.00 18 1013.6
20260830230204 79 148 2.0 7.0 0.00 0.00 0.00 19 1013.8
20260830225416 78 68 2.0 7.0 0.00 0.00 0.00 20 1013.8
20260830224911 78 109 2.0 6.0 0.00 0.00 0.00 20 1013.8
20260830224404 77 14 1.0 7.0 0.00 0.00 0.00 21 1013.9
20260830223900 77 19 2.0 7.0 0.00 0.00 0.00 22 1014.0
20260830223352 77 59 3.0 7.0 0.00 0.00 0.00 22 1014.1
20260830222847 77 130 3.0 7.0 0.00 0.00 0.00 22 1014.2
20260830222340 77 132 2.0 7.0 0.00 0.00 0.00 22 1014.2
20260830221834 77 104 2.0 7.0 0.00 0.00 0.00 23 1014.2
20260830221330 77 99 2.0 6.0 0.00 0.00 0.00 24 1014.2
20260830220824 76 92 1.0 6.0 0.00 0.00 0.00 24 1014.3
20260830220316 76 89 1.0 5.0 0.00 0.00 0.00 24 1014.4
20260830220054 75 82 2.0 6.0 0.00 0.00 0.00 25 1014.4
20260830215305 75 86 2.0 6.0 0.00 0.00 0.00 25 1014.5
20260830214757 75 104 3.0 8.0 0.00 0.00 0.00 26 1014.5
20260830214253 75 335 3.0 8.0 0.00 0.00 0.00 26 1014.6
20260830213744 75 341 2.0 7.0 0.00 0.00 0.00 26 1014.7
20260830213241 75 50 1.0 4.0 0.00 0.00 0.00 26 1014.8
20260830212732 74 90 2.0 6.0 0.00 0.00 0.00 27 1015.0
20260830212226 74 40 3.0 8.0 0.00 0.00 0.00 27 1015.1
20260830211722 74 26 2.0 10.0 0.00 0.00 0.00 27 1015.2
20260830211214 74 75 2.0 10.0 0.00 0.00 0.00 28 1015.2
20260830210708 74 130 2.0 6.0 0.00 0.00 0.00 27 1015.2
20260830210202 74 124 2.0 6.0 0.00 0.00 0.00 27 1015.3
20260830205656 74 143 2.0 7.0 0.00 0.00 0.00 27 1015.3
20260830205432 74 130 2.0 7.0 0.00 0.00 0.00 28 1015.3
20260830204643 73 182 2.0 5.0 0.00 0.00 0.00 28 1015.4
20260830204138 73 121 2.0 8.0 0.00 0.00 0.00 28 1015.5
20260830203633 73 114 2.0 8.0 0.00 0.00 0.00 29 1015.6
20260830203126 72 202 2.0 5.0 0.00 0.00 0.00 30 1015.5
20260830202620 72 110 2.0 6.0 0.00 0.00 0.00 30 1015.5
20260830202117 71 70 2.0 6.0 0.00 0.00 0.00 34 1015.6
20260830201608 71 342 2.0 6.0 0.00 0.00 0.00 32 1015.7
20260830201102 71 198 2.0 6.0 0.00 0.00 0.00 32 1015.7
20260830200556 71 161 2.0 6.0 0.00 0.00 0.00 32 1015.6
20260830200050 71 163 2.0 5.0 0.00 0.00 0.00 33 1015.7
20260830195544 70 116 1.0 8.0 0.00 0.00 0.00 34 1015.7
20260830195044 70 177 1.0 8.0 0.00 0.00 0.00 35 1015.8
20260830194532 69 142 1.0 8.0 0.00 0.00 0.00 34 1015.9
20260830194028 69 130 2.0 8.0 0.00 0.00 0.00 34 1016.0
20260830193523 69 134 2.0 8.0 0.00 0.00 0.00 35 1016.0
20260830193051 70 101 1.0 7.0 0.00 0.00 0.00 35 1016.3
20260830193032 70 142 1.0 7.0 0.00 0.00 0.00 34 1016.1
20260830192015 69 92 2.0 8.0 0.00 0.00 0.00 37 1016.4
20260830191512 69 105 2.0 8.0 0.00 0.00 0.00 37 1016.4
20260830191022 68 114 2.0 7.0 0.00 0.00 0.00 38 1016.4
20260830190513 68 320 2.0 7.0 0.00 0.00 0.00 37 1016.4
20260830190012 68 88 2.0 7.0 0.00 0.00 0.00 37 1016.6
20260830185512 68 140 2.0 8.0 0.00 0.00 0.00 37 1016.6
20260830185014 68 146 3.0 8.0 0.00 0.00 0.00 37 1016.7
20260830184510 67 101 2.0 7.0 0.00 0.00 0.00 39 1016.6
20260830184014 67 109 2.0 6.0 0.00 0.00 0.00 41 1016.6
20260830183758 66 147 2.0 7.0 0.00 0.00 0.00 40 1016.6
20260830183010 66 105 3.0 7.0 0.00 0.00 0.00 41 1016.6
20260830182759 65 93 3.0 8.0 0.00 0.00 0.00 42 1016.7
20260830182014 65 190 2.0 9.0 0.00 0.00 0.00 43 1016.7
20260830181512 65 104 2.0 10.0 0.00 0.00 0.00 44 1016.7
20260830181015 65 90 3.0 10.0 0.00 0.00 0.00 44 1016.7
20260830180504 65 137 2.0 8.0 0.00 0.00 0.00 44 1016.8
20260830180243 64 118 2.0 8.0 0.00 0.00 0.00 45 1016.8
20260830175506 64 94 2.0 6.0 0.00 0.00 0.00 46 1016.9
20260830175004 63 190 1.0 5.0 0.00 0.00 0.00 47 1017.0
20260830174503 62 166 1.0 6.0 0.00 0.00 0.00 48 1017.0
20260830174004 62 142 2.0 6.0 0.00 0.00 0.00 49 1017.0
20260830173745 62 175 2.0 10.0 0.00 0.00 0.00 49 1017.1
20260830173009 61 165 2.0 6.0 0.00 0.00 0.00 50 1017.1
20260830173004 62 196 2.0 10.0 0.00 0.00 0.00 49 1017.0
20260830172003 60 113 2.0 8.0 0.00 0.00 0.00 51 1017.0
20260830171504 60 113 2.0 8.0 0.00 0.00 0.00 52 1017.0
20260830171003 59 170 1.0 7.0 0.00 0.00 0.00 53 1017.1
20260830170540 58 176 2.0 7.0 0.00 0.00 0.00 54 1017.1
20260830170520 58 114 2.0 5.0 0.00 0.00 0.00 54 1017.1
20260830165514 58 184 2.0 7.0 0.00 0.00 0.00 54 1017.3
20260830165005 58 131 2.0 6.0 0.00 0.00 0.00 55 1017.2
20260830164501 57 144 2.0 6.0 0.00 0.00 0.00 56 1017.2
20260830163959 56 147 2.0 7.0 0.00 0.00 0.00 58 1017.3
20260830163458 56 181 2.0 7.0 0.00 0.00 0.00 58 1017.5
20260830163002 55 107 2.0 7.0 0.00 0.00 0.00 59 1017.6
20260830162545 55 153 2.0 7.0 0.00 0.00 0.00 60 1017.6
20260830162306 54 143 2.0 7.0 0.00 0.00 0.00 61 1017.6
20260830161218 52 140 2.0 7.0 0.00 0.00 0.00 64 1017.6
20260830160439 51 155 2.0 5.0 0.00 0.00 0.00 64 1017.8
20260830155940 51 143 2.0 7.0 0.00 0.00 0.00 65 1017.8
20260830155427 50 178 1.0 7.0 0.00 0.00 0.00 65 1017.9
20260830154921 50 159 2.0 6.0 0.00 0.00 0.00 66 1017.9
20260830154701 49 151 2.0 5.0 0.00 0.00 0.00 67 1017.8
20260830153910 49 150 1.0 4.0 0.00 0.00 0.00 68 1017.8
20260830153642 48 144 1.0 6.0 0.00 0.00 0.00 69 1017.9
20260830153126 47 143 1.0 6.0 0.00 0.00 0.00 70 1017.9
20260830152352 46 144 1.0 4.0 0.00 0.00 0.00 71 1018.0
20260830152119 46 139 2.0 7.0 0.00 0.00 0.00 72 1018.0
20260830151616 45 142 2.0 7.0 0.00 0.00 0.00 73 1018.0
20260830150834 44 142 2.0 5.0 0.00 0.00 0.00 74 1018.0
20260830150327 44 135 2.0 6.0 0.00 0.00 0.00 74 1017.9
20260830145821 43 135 2.0 6.0 0.00 0.00 0.00 75 1018.0
20260830145315 43 148 2.0 7.0 0.00 0.00 0.00 77 1017.9
20260830145039 42 146 2.0 7.0 0.00 0.00 0.00 78 1018.0
20260830144756 41 156 2.0 5.0 0.00 0.00 0.00 79 1018.0
20260830143756 40 143 1.0 7.0 0.00 0.00 0.00 80 1018.0
20260830143253 40 150 1.0 7.0 0.00 0.00 0.00 82 1017.9
20260830142745 39 148 2.0 7.0 0.00 0.00 0.00 82 1017.9
20260830142241 39 140 3.0 7.0 0.00 0.00 0.00 82 1017.8
20260830141733 39 146 3.0 7.0 0.00 0.00 0.00 82 1017.8
20260830141227 38 155 2.0 6.0 0.00 0.00 0.00 83 1017.7
20260830140721 38 157 2.0 5.0 0.00 0.00 0.00 83 1017.6
20260830140215 38 130 2.0 5.0 0.00 0.00 0.00 84 1017.6
20260830135710 38 145 2.0 5.0 0.00 0.00 0.00 85 1017.6
20260830135444 38 142 2.0 5.0 0.00 0.00 0.00 86 1017.5
20260830134700 37 144 2.0 5.0 0.00 0.00 0.00 86 1017.6
20260830134151 37 136 2.0 4.0 0.00 0.00 0.00 86 1017.5
20260830133929 37 87 2.0 4.0 0.00 0.00 0.00 86 1017.6
20260830133139 37 74 2.0 4.0 0.00 0.00 0.00 86 1017.5
20260830132637 37 69 2.0 3.0 0.00 0.00 0.00 87 1017.5
20260830132127 37 62 1.0 3.0 0.00 0.00 0.00 87 1017.5
20260830131624 37 55 0.0 2.0 0.00 0.00 0.00 88 1017.5
20260830131132 37 53 0.0 0.0 0.00 0.00 0.00 89 1017.5
20260830131128 37 53 0.0 0.0 0.00 0.00 0.00 89 1017.5
20260830131123 37 53 0.0 0.0 0.00 0.00 0.00 88 1017.5
20260830125557 37 53 0.0 0.0 0.00 0.00 0.00 88 1017.5
20260830125130 37 53 0.0 0.0 0.00 0.00 0.00 87 1017.3
20260830125115 37 53 0.0 0.0 0.00 0.00 0.00 88 1017.3
20260830124039 37 53 0.0 0.0 0.00 0.00 0.00 87 1017.3
20260830123539 37 53 0.0 0.0 0.00 0.00 0.00 88 1017.5
20260830123038 37 53 0.0 0.0 0.00 0.00 0.00 88 1017.3
20260830122538 37 53 0.0 0.0 0.00 0.00 0.00 87 1017.3
20260830122037 37 53 0.0 0.0 0.00 0.00 0.00 87 1017.3
20260830121537 37 53 0.0 0.0 0.00 0.00 0.00 85 1017.3
20260830121037 38 53 0.0 0.0 0.00 0.00 0.00 84 1017.5
20260830120825 38 53 0.0 0.0 0.00 0.00 0.00 85 1017.3
20260830120038 39 53 0.0 0.0 0.00 0.00 0.00 86 1017.3
20260830115538 39 53 0.0 0.0 0.00 0.00 0.00 86 1017.3
20260830115322 39 53 0.0 0.0 0.00 0.00 0.00 86 1017.3
20260830114538 39 53 0.0 0.0 0.00 0.00 0.00 86 1017.2
20260830114036 39 53 0.0 0.0 0.00 0.00 0.00 86 1017.2
20260830113545 40 53 0.0 0.0 0.00 0.00 0.00 85 1017.1
20260830113057 40 53 0.0 0.0 0.00 0.00 0.00 85 1017.0
20260830112553 40 53 0.0 0.0 0.00 0.00 0.00 83 1017.1
20260830112309 40 53 0.0 0.0 0.00 0.00 0.00 83 1017.1
20260830111536 41 53 0.0 0.0 0.00 0.00 0.00 84 1017.1
20260830111307 41 53 0.0 0.0 0.00 0.00 0.00 85 1017.1
20260830110545 41 53 0.0 0.0 0.00 0.00 0.00 84 1017.1
20260830110040 41 53 0.0 0.0 0.00 0.00 0.00 82 1017.1
20260830105531 42 53 0.0 0.0 0.00 0.00 0.00 81 1017.2
20260830105310 42 53 0.0 0.0 0.00 0.00 0.00 81 1017.1
20260830104521 43 53 0.0 2.0 0.00 0.00 0.00 81 1017.1
20260830104016 43 53 0.0 2.0 0.00 0.00 0.00 82 1017.1
20260830103508 43 53 0.0 0.0 0.00 0.00 0.00 85 1017.0
20260830103240 43 53 0.0 0.0 0.00 0.00 0.00 83 1017.0
20260830102720 43 53 0.0 0.0 0.00 0.00 0.00 81 1017.1
20260830101954 44 53 0.0 0.0 0.00 0.00 0.00 81 1017.0
20260830101724 44 53 0.0 0.0 0.00 0.00 0.00 82 1017.1
20260830100937 44 53 0.0 0.0 0.00 0.00 0.00 82 1017.0
20260830100434 44 53 0.0 0.0 0.00 0.00 0.00 80 1016.9
20260830095926 44 53 0.0 0.0 0.00 0.00 0.00 82 1017.0
20260830095704 44 53 0.0 0.0 0.00 0.00 0.00 81 1017.0
20260830095144 44 53 0.0 2.0 0.00 0.00 0.00 80 1016.9
20260830094900 44 53 0.0 2.0 0.00 0.00 0.00 79 1017.0
20260830094654 44 53 0.0 2.0 0.00 0.00 0.00 79 1017.0
20260830093900 44 52 0.0 2.0 0.00 0.00 0.00 79 1017.0
20260830093357 44 51 0.0 0.0 0.00 0.00 0.00 80 1017.0
20260830092855 45 51 0.0 2.0 0.00 0.00 0.00 79 1016.9
20260830092603 45 51 1.0 3.0 0.00 0.00 0.00 79 1016.9
20260830092353 45 51 1.0 3.0 0.00 0.00 0.00 79 1016.9
20260830091841 45 51 1.0 3.0 0.00 0.00 0.00 78 1016.9
20260830091334 45 49 0.0 3.0 0.00 0.00 0.00 78 1016.9
20260830090845 45 17 0.0 2.0 0.00 0.00 0.00 76 1016.9
20260830090058 46 11 0.0 0.0 0.00 0.00 0.00 73 1016.9
20260830085540 47 11 0.0 0.0 0.00 0.00 0.00 76 1016.9
20260830085045 47 11 0.0 1.0 0.00 0.00 0.00 78 1016.8
20260830084258 47 11 0.0 2.0 0.00 0.00 0.00 78 1016.8
20260830084039 47 11 0.0 2.0 0.00 0.00 0.00 79 1016.9
20260830083244 47 300 0.0 0.0 0.00 0.00 0.00 78 1016.9
20260830082739 46 300 0.0 0.0 0.00 0.00 0.00 77 1016.8
20260830082228 46 300 0.0 0.0 0.00 0.00 0.00 77 1016.8
20260830081724 47 300 0.0 0.0 0.00 0.00 0.00 75 1016.8
20260830081221 47 300 0.0 0.0 0.00 0.00 0.00 75 1016.7
20260830080719 47 300 0.0 0.0 0.00 0.00 0.00 75 1016.7
20260830080212 47 300 0.0 0.0 0.00 0.00 0.00 75 1016.7
20260830075938 48 300 0.0 0.0 0.00 0.00 0.00 75 1016.7
20260830075418 48 299 0.0 0.0 0.00 0.00 0.00 75 1016.7
20260830074656 48 299 0.0 0.0 0.00 0.00 0.00 75 1016.6
20260830074410 48 299 0.0 0.0 0.00 0.00 0.00 75 1016.6
20260830073640 48 299 0.0 0.0 0.00 0.00 0.00 74 1016.7
20260830073357 48 299 0.0 0.0 0.00 0.00 0.00 74 1016.6
20260830072643 48 299 0.0 0.0 0.00 0.00 0.00 74 1016.6
20260830072108 48 299 0.0 0.0 0.00 0.00 0.00 73 1016.6
20260830071107 49 299 0.0 1.0 0.00 0.00 0.00 72 1016.6
20260830070601 49 299 0.0 1.0 0.00 0.00 0.00 73 1016.6
20260830070059 49 299 0.0 1.0 0.00 0.00 0.00 73 1016.7
20260830065604 48 299 0.0 1.0 0.00 0.00 0.00 72 1016.7
20260830065058 48 299 0.0 1.0 0.00 0.00 0.00 71 1016.7
20260830064559 48 299 0.0 0.0 0.00 0.00 0.00 69 1016.8
20260830064056 49 299 0.0 0.0 0.00 0.00 0.00 69 1016.7
20260830063545 49 299 0.0 0.0 0.00 0.00 0.00 68 1016.7
20260830063053 50 299 0.0 0.0 0.00 0.00 0.00 68 1016.7
20260830062545 50 299 0.0 0.0 0.00 0.00 0.00 68 1016.7
20260830062257 50 299 0.0 0.0 0.00 0.00 0.00 68 1016.8
20260830061256 50 299 0.0 0.0 0.00 0.00 0.00 67 1016.8
20260830060043 50 299 0.0 0.0 0.00 0.00 0.00 67 1016.8
20260830055544 51 299 0.0 0.0 0.00 0.00 0.00 63 1016.8
20260830055044 51 299 0.0 0.0 0.00 0.00 0.00 64 1016.8
20260830054544 51 299 0.0 0.0 0.00 0.00 0.00 63 1016.9
20260830054044 52 299 0.0 0.0 0.00 0.00 0.00 64 1016.8
20260830053544 52 299 0.0 0.0 0.00 0.00 0.00 63 1016.8
20260830053313 52 299 0.0 0.0 0.00 0.00 0.00 62 1016.8
20260830052542 52 299 0.0 0.0 0.00 0.00 0.00 62 1016.7
20260830052306 52 299 0.0 0.0 0.00 0.00 0.00 62 1016.8
20260830051535 52 299 0.0 0.0 0.00 0.00 0.00 62 1016.7
20260830051031 52 299 0.0 0.0 0.00 0.00 0.00 61 1016.8
20260830050524 52 299 0.0 0.0 0.00 0.00 0.00 59 1016.8
20260830050255 52 299 0.0 0.0 0.00 0.00 0.00 57 1016.8
20260830045514 53 299 0.0 0.0 0.00 0.00 0.00 55 1016.8
20260830045006 53 299 0.0 0.0 0.00 0.00 0.00 56 1016.8
20260830044459 54 299 0.0 0.0 0.00 0.00 0.00 57 1016.8
20260830044232 54 299 0.0 0.0 0.00 0.00 0.00 56 1016.7
20260830043708 54 299 0.0 0.0 0.00 0.00 0.00 55 1016.8
20260830042940 54 299 0.0 1.0 0.00 0.00 0.00 55 1016.7
20260830042435 54 300 0.0 1.0 0.00 0.00 0.00 55 1016.8
20260830041929 55 296 1.0 3.0 0.00 0.00 0.00 55 1016.7
20260830041422 55 296 1.0 3.0 0.00 0.00 0.00 54 1016.5
20260830040918 55 298 1.0 4.0 0.00 0.00 0.00 53 1016.4
20260830040411 55 303 1.0 4.0 0.00 0.00 0.00 53 1016.5
20260830035905 56 308 1.0 3.0 0.00 0.00 0.00 52 1016.4
20260830035359 56 309 1.0 3.0 0.00 0.00 0.00 51 1016.4
20260830035110 56 309 1.0 3.0 0.00 0.00 0.00 51 1016.3
20260830034903 56 309 1.0 3.0 0.00 0.00 0.00 51 1016.3
20260830034611 57 333 1.0 5.0 0.00 0.00 0.00 50 1016.3
20260830034355 57 334 2.0 5.0 0.00 0.00 0.00 50 1016.1
20260830033842 57 334 2.0 5.0 0.00 0.00 0.00 50 1016.1
20260830033338 57 340 2.0 5.0 0.00 0.00 0.00 50 1016.0
20260830032830 58 319 2.0 7.0 0.00 0.00 0.00 49 1016.0
20260830032324 58 309 2.0 7.0 0.00 0.00 0.00 49 1015.9
20260830031817 58 317 3.0 8.0 0.00 0.00 0.00 49 1015.9
20260830031310 58 315 3.0 9.0 0.00 0.00 0.00 48 1015.9